#timestamp,LO_Frequency,Hit,StdDev 
1522224015.4,286047000.4,N
1522224035.3,286047001.2,N
1522224055.1,286047001.1,N
1522224075.8,286047000.6,N
1522224095.7,286047002.7,N
1522224115.5,286047001.1,N
1522224135.4,286046999.3,N
1522224155.2,286046998.4,N
1522224175.0,286046998.3,N
1522224175.9,286046998.3,N
1522224195.8,286047000.8,N
1522224215.6,286047000.2,N
1522224235.5,286047000.0,N
1522224255.3,286046999.9,N
1522224275.1,286047000.3,N
1522224295.9,286047002.6,N
1522224315.7,286047002.1,N
1522224335.5,286047002.7,N
1522224355.4,286047003.9,N
1522224375.2,286047004.1,N
1522224395.1,286047003.7,N
1522224396.0,286047003.7,N
1522224415.8,286047003.1,N
1522224435.6,286047001.8,N
1522224455.5,286047004.4,N
1522224475.3,286047001.7,N
1522224495.1,286047001.8,N
1522224515.9,286047001.8,N
1522224535.7,286047004.2,N
1522224555.6,286047001.9,N
1522224575.4,286047002.6,N
1522224595.2,286047001.9,N
1522224615.1,286047001.6,N
1522224616.0,286047001.6,N
1522224635.8,286047001.5,N
1522224655.6,286046999.9,N
1522224675.5,286047002.7,N
1522224695.3,286047001.8,N
1522224715.2,286047002.3,N
1522224735.0,286047001.5,N
1522224735.9,286047001.5,N
1522224755.8,286046999.7,N
1522224775.6,286047002.4,N
1522224795.4,286047000.9,N
1522224815.3,286047001.0,N
1522224835.1,286047002.7,N
1522224855.8,286047002.2,N
1522224875.7,286047003.6,Y
1522224895.5,286046998.3,P
1522224915.4,286046999.9,N
1522224935.2,286047000.4,N
1522224955.0,286046999.9,N
1522224955.9,286046999.9,N
1522224975.8,286047001.6,N
1522224995.6,286047000.1,N
1522225015.5,286046999.9,N
1522225035.3,286047001.1,N
1522225055.1,286046998.5,N
1522225075.9,286046998.1,N
1522225095.7,286047000.2,N
1522225115.6,286047002.3,N
1522225135.4,286047002.7,N
1522225155.2,286047000.2,N
1522225175.1,286047000.8,N
1522225176.0,286047000.8,N
1522225195.8,286047000.6,N
1522225215.7,286047000.8,N
1522225235.5,286046999.8,N
1522225255.3,286047002.7,N
1522225275.2,286046999.7,N
1522225295.0,286047001.4,N
1522225295.9,286047001.4,N
1522225315.7,286047001.4,N
1522225335.6,286047001.3,N
1522225355.4,286046999.8,N
1522225375.3,286047000.6,N
1522225395.1,286047000.5,N
1522225396.0,286047000.5,N
1522225415.8,286047002.0,N
1522225435.7,286047004.2,Y
1522225455.5,286047002.2,P
1522225475.4,286047000.5,N
1522225495.2,286046998.2,N
1522225515.0,286046998.2,N
1522225515.9,286046998.2,N
1522225535.8,286047000.7,N
1522225555.6,286047002.8,N
1522225575.5,286047002.0,N
1522225595.3,286047001.4,N
1522225615.1,286047004.3,N
1522225635.9,286047004.4,N
1522225655.7,286047001.7,N
1522225675.5,286047003.6,N
1522225695.4,286047002.0,N
1522225715.2,286047002.6,N
1522225735.1,286046999.7,N
1522225736.0,286046999.7,N
1522225755.8,286047000.4,N
1522225775.6,286047000.8,N
1522225825.5,286047002.2,E
1522225835.4,286047000.6,N
1522225855.3,286046999.2,P
1522225875.1,286046998.3,N
1522225895.8,286046998.2,N
1522225915.7,286047001.2,N
1522225935.5,286047000.0,N
1522225955.4,286046998.1,N
1522225975.2,286047000.6,N
1522225995.0,286047002.6,N
1522225995.9,286047002.6,N
1522226015.8,286047002.0,N
1522226035.6,286047002.5,N
1522226055.5,286047000.1,N
1522226075.3,286046999.8,N
1522226095.1,286047000.4,N
1522226115.9,286047000.5,N
1522226135.7,286047001.1,N
1522226155.5,286046998.2,N
1522226175.4,286046999.4,N
1522226195.2,286046999.1,N
1522226215.1,286046998.4,N
1522226216.0,286046998.4,N
1522226235.8,286046998.8,N
1522226255.6,286047001.2,N
1522226275.5,286046998.5,N
1522226295.3,286046998.9,N
1522226315.2,286047001.1,N
1522226335.9,286046998.6,N
1522226355.7,286046998.9,N
1522226375.6,286046998.3,N
1522226395.4,286046999.6,N
1522226415.2,286046998.4,N
1522226435.1,286047000.6,N
1522226436.0,286047000.6,N
1522226455.8,286046998.5,N
1522226475.7,286047001.0,N
1522226495.5,286047000.7,N
1522226515.3,286047000.8,N
1522226535.2,286047000.0,N
1522226555.0,286046998.5,N
1522226555.9,286046998.5,N
1522226575.8,286046999.5,N
1522226595.6,286046996.8,Y
1522226615.4,286046997.0,P
1522226635.3,286046996.9,N
1522226655.1,286046996.6,N
1522226675.8,286046997.0,N
1522226695.7,286046997.0,N
1522226715.5,286046997.0,Y
1522226735.4,286046998.5,P
1522226755.2,286047000.0,N
1522226775.0,286047000.6,N
1522226775.9,286047000.6,N
1522226795.8,286047002.3,N
1522226815.6,286047001.9,N
1522226835.5,286047003.8,N
1522226855.3,286047002.7,N
1522226875.1,286047002.7,N
1522226895.9,286047001.0,N
1522226915.7,286047000.3,N
1522226935.5,286047004.0,N
1522226955.4,286047004.1,N
1522226975.2,286047004.3,N
1522226995.0,286047001.8,N
1522226996.0,286047001.8,N
1522227015.8,286047003.5,N
1522227035.6,286047002.9,N
1522227055.5,286047003.0,N
1522227075.3,286047003.7,N
1522227095.1,286047002.7,N
1522227115.9,286047002.6,N
1522227135.7,286047002.8,N
1522227155.6,286047001.7,N
1522227175.4,286047004.0,N
1522227195.2,286047004.0,N
1522227215.1,286047002.1,N
1522227216.0,286047002.1,N
1522227235.8,286047001.4,N
1522227255.7,286047004.3,N
1522227275.5,286047002.3,N
1522227295.3,286046999.8,N
1522227315.2,286046999.7,N
1522227335.0,286047002.2,N
1522227335.9,286047002.2,N
1522227355.7,286047000.5,N
1522227375.6,286047000.0,N
1522227395.4,286047000.0,N
1522227415.3,286047001.3,N
1522227435.1,286047004.4,Y
1522227455.8,286047002.8,P
1522227475.7,286047001.9,P
1522227495.5,286047002.0,P
1522227515.4,286047001.8,Y
1522227535.2,286046998.3,P
1522227555.0,286046998.5,N
1522227555.9,286046998.5,N
1522227575.8,286047000.4,N
1522227595.6,286047001.0,N
